User: anonymous   Login
Location: Unspecified
(0.0000°N, 0.0000°E)
Time: 01:24:10
(UTC+00:00)
Language:

XW-2A - Orbit

View from above orbital plane
View from above orbital plane
View from above satellite
View from above satellite

Ground track
Ground track

The orbit data is extracted from the following two-line orbital elements,

1 40903U 15049E   20185.78584244  .00001167  00000-0  28258-4 0  9997
2 40903  97.2867 234.7494 0012354 196.7101 275.1719 15.43140828268992
Epoch (UTC): 03 July 2020 18:51:36
Eccentricity: 0.0012354
inclination: 97.2867°
perigee height: 428 km
apogee height: 445 km
right ascension of ascending node: 234.7494°
argument of perigee: 196.7101°
revolutions per day: 15.43140828
mean anomaly at epoch: 275.1719°
orbit number at epoch: 26899

The dashed part of the orbit path shows where the satellite is in the earth's shadow,  

DLR